When you browse on this site, cookies collect data to enhance your experience and personalize the content and advertising you see.
Visit our Privacy Policy to learn more. By continuing to use the site, you agree to this use of cookies and data.
  • en France
  • Liste des pays
  • À 7 jours
  • Température de l'eau
  • Carte météo
  • Widgets météo
  • user-avatar
    Se connecter

    Météo par heure à Calgary

    Ce jour, 5 Avril, Dimanche

    Heure Température Précipitation Vent Pression Humidité
    00:00 -13°C° 0.1 mm 3 m/s 661 mmHg 95%
    01:00 -13°C° 0.1 mm 3 m/s 661 mmHg 95%
    02:00 -13°C° 0 mm 3 m/s 660 mmHg 95%
    03:00 -13°C° 0 mm 3 m/s 660 mmHg 95%
    04:00 -13°C° 0 mm 3 m/s 660 mmHg 95%
    05:00 -12°C° 0.1 mm 3 m/s 660 mmHg 94%
    06:00 -12°C° 0.1 mm 3 m/s 660 mmHg 93%
    07:00 -12°C° 0.1 mm 3 m/s 659 mmHg 92%
    08:00 -10°C° 0.1 mm 3 m/s 659 mmHg 90%
    09:00 -9°C° 0.1 mm 3 m/s 659 mmHg 89%
    10:00 -8°C° 0.1 mm 3 m/s 658 mmHg 87%
    11:00 -7°C° 0.1 mm 3 m/s 658 mmHg 87%
    12:00 -7°C° 0.1 mm 4 m/s 658 mmHg 86%
    13:00 -7°C° 0.1 mm 4 m/s 657 mmHg 86%
    14:00 -7°C° 0.1 mm 4 m/s 657 mmHg 88%
    15:00 -7°C° 0.1 mm 4 m/s 657 mmHg 89%
    16:00 -6°C° 0.1 mm 3 m/s 656 mmHg 91%
    17:00 -7°C° 0.1 mm 3 m/s 656 mmHg 93%
    18:00 -6°C° 0.1 mm 2 m/s 656 mmHg 94%
    19:00 -7°C° 0.1 mm 2 m/s 656 mmHg 96%
    20:00 -7°C° 0.1 mm 2 m/s 656 mmHg 96%
    21:00 -8°C° 0.1 mm 2 m/s 656 mmHg 96%
    22:00 -8°C° 0.1 mm 2 m/s 656 mmHg 95%
    23:00 -8°C° 0.1 mm 2 m/s 656 mmHg 95%

    Demain, 6 Avril, Lundi

    Heure Température Précipitation Vent Pression Humidité
    00:00 -9°C° 0.1 mm 2 m/s 656 mmHg 95%
    01:00 -10°C° 0.1 mm 3 m/s 655 mmHg 95%
    02:00 -10°C° 0.1 mm 3 m/s 655 mmHg 94%
    03:00 -9°C° 0.1 mm 2 m/s 656 mmHg 94%
    04:00 -9°C° 0.1 mm 2 m/s 656 mmHg 94%
    05:00 -9°C° 0 mm 2 m/s 656 mmHg 92%
    06:00 -8°C° 0 mm 2 m/s 656 mmHg 90%
    07:00 -8°C° 0 mm 2 m/s 657 mmHg 88%
    08:00 -7°C° 0 mm 2 m/s 657 mmHg 85%
    09:00 -3°C° 0 mm 1 m/s 657 mmHg 82%
    10:00 -2°C° 0 mm 1 m/s 657 mmHg 79%
    11:00 -3°C° 0 mm 2 m/s 657 mmHg 79%
    12:00 -2°C° 0 mm 2 m/s 657 mmHg 79%
    13:00 -1°C° 0 mm 3 m/s 657 mmHg 79%
    14:00 -1°C° 0 mm 3 m/s 656 mmHg 80%
    15:00 -1°C° 0 mm 3 m/s 656 mmHg 81%
    16:00 0°C° 0 mm 3 m/s 656 mmHg 82%
    17:00 -1°C° 0 mm 2 m/s 656 mmHg 82%
    18:00 -2°C° 0 mm 2 m/s 656 mmHg 82%
    19:00 -1°C° 0 mm 1 m/s 657 mmHg 82%
    20:00 -3°C° 0 mm 2 m/s 657 mmHg 79%
    21:00 -5°C° 0 mm 3 m/s 657 mmHg 76%
    22:00 -5°C° 0 mm 3 m/s 657 mmHg 73%
    23:00 -5°C° 0 mm 4 m/s 657 mmHg 73%

    Après-demain, 7 Avril, Mardi

    Heure Température Précipitation Vent Pression Humidité
    00:00 -5°C° 0 mm 4 m/s 657 mmHg 74%
    01:00 -5°C° 0 mm 4 m/s 657 mmHg 75%
    02:00 -7°C° 0 mm 4 m/s 657 mmHg 80%
    03:00 -7°C° 0 mm 3 m/s 657 mmHg 85%
    04:00 -8°C° 0 mm 3 m/s 657 mmHg 90%
    05:00 -7°C° 0 mm 3 m/s 658 mmHg 89%
    06:00 -6°C° 0 mm 2 m/s 658 mmHg 87%
    07:00 -5°C° 0 mm 2 m/s 659 mmHg 86%
    08:00 -4°C° 0.1 mm 2 m/s 659 mmHg 84%
    09:00 -5°C° 0.1 mm 3 m/s 659 mmHg 81%
    10:00 -4°C° 0.1 mm 3 m/s 659 mmHg 79%
    11:00 -4°C° 0.2 mm 3 m/s 660 mmHg 80%
    12:00 -4°C° 0.2 mm 3 m/s 661 mmHg 81%
    13:00 -4°C° 0.2 mm 3 m/s 661 mmHg 83%
    14:00 -4°C° 0.2 mm 3 m/s 662 mmHg 82%
    15:00 -4°C° 0.2 mm 3 m/s 662 mmHg 81%
    16:00 -4°C° 0.2 mm 3 m/s 663 mmHg 80%
    17:00 -3°C° 0.2 mm 2 m/s 664 mmHg 81%
    18:00 -4°C° 0.2 mm 2 m/s 665 mmHg 83%
    19:00 -5°C° 0.2 mm 2 m/s 666 mmHg 84%
    20:00 -6°C° 0 mm 2 m/s 667 mmHg 83%
    21:00 -6°C° 0 mm 2 m/s 668 mmHg 83%
    22:00 -7°C° 0 mm 2 m/s 669 mmHg 82%
    23:00 -7°C° 0 mm 2 m/s 669 mmHg 81%

    8 Avril, Mercredi

    Heure Température Précipitation Vent Pression Humidité
    00:00 -8°C° 0 mm 2 m/s 669 mmHg 81%
    01:00 -8°C° 0 mm 2 m/s 670 mmHg 80%
    02:00 -8°C° 0 mm 2 m/s 670 mmHg 80%
    03:00 -8°C° 0 mm 2 m/s 670 mmHg 80%
    04:00 -9°C° 0 mm 2 m/s 670 mmHg 80%
    05:00 -8°C° 0 mm 2 m/s 671 mmHg 79%
    06:00 -7°C° 0 mm 2 m/s 671 mmHg 77%
    07:00 -6°C° 0 mm 2 m/s 671 mmHg 76%
    08:00 -5°C° 0 mm 2 m/s 671 mmHg 73%
    09:00 -4°C° 0 mm 2 m/s 671 mmHg 70%
    10:00 -2°C° 0 mm 2 m/s 671 mmHg 67%
    11:00 -2°C° 0 mm 2 m/s 670 mmHg 67%
    12:00 -1°C° 0 mm 2 m/s 670 mmHg 67%
    13:00 +1°C° 0 mm 2 m/s 670 mmHg 67%
    14:00 +1°C° 0 mm 2 m/s 670 mmHg 69%
    15:00 0°C° 0 mm 3 m/s 669 mmHg 70%
    16:00 0°C° 0 mm 3 m/s 669 mmHg 72%
    17:00 -2°C° 0 mm 2 m/s 669 mmHg 75%
    18:00 -3°C° 0 mm 2 m/s 668 mmHg 79%
    19:00 -4°C° 0 mm 2 m/s 668 mmHg 83%
    20:00 -5°C° 0 mm 2 m/s 668 mmHg 82%
    21:00 -5°C° 0 mm 2 m/s 668 mmHg 81%
    22:00 -3°C° 0 mm 1 m/s 668 mmHg 81%
    23:00 -3°C° 0 mm 1 m/s 668 mmHg 82%

    9 Avril, Jeudi

    Heure Température Précipitation Vent Pression Humidité
    00:00 -5°C° 0 mm 2 m/s 667 mmHg 83%
    01:00 -5°C° 0 mm 2 m/s 667 mmHg 83%
    02:00 -5°C° 0 mm 2 m/s 667 mmHg 81%
    03:00 -5°C° 0 mm 2 m/s 666 mmHg 80%
    04:00 -3°C° 0 mm 1 m/s 666 mmHg 78%
    05:00 -4°C° 0 mm 2 m/s 666 mmHg 75%
    06:00 -3°C° 0 mm 2 m/s 666 mmHg 72%
    07:00 -2°C° 0 mm 2 m/s 666 mmHg 69%
    08:00 +1°C° 0 mm 2 m/s 666 mmHg 67%
    09:00 +3°C° 0 mm 2 m/s 666 mmHg 64%
    10:00 +5°C° 0 mm 2 m/s 665 mmHg 62%
    11:00 +6°C° 0 mm 2 m/s 665 mmHg 60%
    12:00 +8°C° 0 mm 1 m/s 665 mmHg 57%
    13:00 +9°C° 0 mm 1 m/s 665 mmHg 55%
    14:00 +7°C° 0 mm 2 m/s 665 mmHg 63%
    15:00 +4°C° 0 mm 3 m/s 665 mmHg 71%
    16:00 +1°C° 0 mm 5 m/s 664 mmHg 79%
    17:00 0°C° 0 mm 4 m/s 665 mmHg 84%
    18:00 -1°C° 0 mm 3 m/s 665 mmHg 88%
    19:00 -2°C° 0 mm 2 m/s 665 mmHg 93%
    20:00 0°C° 0.1 mm 1 m/s 666 mmHg 94%
    21:00 0°C° 0.1 mm 1 m/s 667 mmHg 95%
    22:00 0°C° 0.1 mm 1 m/s 667 mmHg 96%
    23:00 0°C° 0.3 mm 1 m/s 667 mmHg 95%

    10 Avril, Vendredi

    Heure Température Précipitation Vent Pression Humidité
    00:00 0°C° 0.3 mm 1 m/s 667 mmHg 95%
    01:00 -1°C° 0.3 mm 1 m/s 667 mmHg 95%
    02:00 -1°C° 0.1 mm 1 m/s 667 mmHg 93%
    03:00 -1°C° 0.1 mm 1 m/s 667 mmHg 91%
    04:00 -1°C° 0.1 mm 1 m/s 668 mmHg 89%
    05:00 -1°C° 0 mm 1 m/s 668 mmHg 86%
    06:00 -1°C° 0 mm 1 m/s 668 mmHg 83%
    07:00 -2°C° 0 mm 0 m/s 668 mmHg 80%
    08:00 0°C° 0.1 mm 1 m/s 668 mmHg 79%
    09:00 0°C° 0.1 mm 1 m/s 668 mmHg 77%
    10:00 -1°C° 0.1 mm 2 m/s 668 mmHg 76%
    11:00 -1°C° 0 mm 2 m/s 668 mmHg 75%
    12:00 -1°C° 0 mm 3 m/s 668 mmHg 75%
    13:00 0°C° 0 mm 3 m/s 668 mmHg 75%
    14:00 0°C° 0.1 mm 3 m/s 667 mmHg 78%
    15:00 -2°C° 0.1 mm 4 m/s 667 mmHg 81%
    16:00 -2°C° 0.1 mm 4 m/s 667 mmHg 85%
    17:00 -3°C° 0.1 mm 4 m/s 667 mmHg 87%
    18:00 -4°C° 0.1 mm 4 m/s 668 mmHg 90%
    19:00 -5°C° 0.1 mm 4 m/s 668 mmHg 92%
    20:00 -5°C° 0.5 mm 3 m/s 668 mmHg 93%
    21:00 -5°C° 0.5 mm 3 m/s 669 mmHg 93%
    22:00 -5°C° 0.5 mm 3 m/s 669 mmHg 94%
    23:00 -5°C° 0.5 mm 2 m/s 669 mmHg 94%
    Voir plus